| time (UTC) | temp F | wind direction | speed MPH | gust MPH | rain 1hr in | rain 24hr in | rain mn in | humidity % | barometer mb |
| 20260902182559 | 71 | 233 | 1.0 | 4.0 | 0.00 | 0.00 | 0.00 | 78 | 1023.0 |
| 20260902182101 | 71 | 275 | 2.0 | 4.0 | 0.00 | 0.00 | 0.00 | 78 | 1023.0 |
| 20260902181559 | 71 | 257 | 2.0 | 4.0 | 0.00 | 0.00 | 0.00 | 78 | 1022.9 |
| 20260902181059 | 71 | 212 | 2.0 | 5.0 | 0.00 | 0.00 | 0.00 | 77 | 1023.0 |
| 20260902180557 | 71 | 191 | 2.0 | 5.0 | 0.00 | 0.00 | 0.00 | 77 | 1023.0 |
| 20260902180055 | 71 | 165 | 1.0 | 4.0 | 0.00 | 0.00 | 0.00 | 77 | 1023.0 |
| 20260902175555 | 71 | 195 | 1.0 | 3.0 | 0.00 | 0.00 | 0.00 | 77 | 1023.1 |
| 20260902175053 | 71 | 224 | 2.0 | 4.0 | 0.00 | 0.00 | 0.00 | 77 | 1023.2 |
| 20260902174553 | 71 | 147 | 1.0 | 4.0 | 0.00 | 0.00 | 0.00 | 77 | 1023.2 |
| 20260902174543 | 72 | 198 | 1.0 | 4.0 | 0.00 | 0.00 | 0.00 | 77 | 1023.2 |
| 20260902173816 | 71 | 159 | 1.0 | 4.0 | 0.00 | 0.00 | 0.00 | 77 | 1023.2 |
| 20260902173052 | 71 | 129 | 1.0 | 3.0 | 0.00 | 0.00 | 0.00 | 77 | 1023.2 |
| 20260902172542 | 72 | 185 | 1.0 | 4.0 | 0.00 | 0.00 | 0.00 | 78 | 1023.2 |
| 20260902172308 | 72 | 210 | 2.0 | 4.0 | 0.00 | 0.00 | 0.00 | 77 | 1023.2 |
| 20260902171545 | 72 | 174 | 2.0 | 3.0 | 0.00 | 0.00 | 0.00 | 77 | 1023.2 |
| 20260902171041 | 72 | 186 | 1.0 | 5.0 | 0.00 | 0.00 | 0.00 | 77 | 1023.2 |
| 20260902170804 | 72 | 142 | 1.0 | 5.0 | 0.00 | 0.00 | 0.00 | 78 | 1023.1 |
| 20260902170301 | 72 | 138 | 2.0 | 4.0 | 0.00 | 0.00 | 0.00 | 78 | 1023.0 |
| 20260902165539 | 71 | 99 | 2.0 | 4.0 | 0.00 | 0.00 | 0.00 | 79 | 1023.1 |
| 20260902165040 | 71 | 162 | 1.0 | 4.0 | 0.00 | 0.00 | 0.00 | 79 | 1023.4 |
| 20260902164537 | 71 | 182 | 2.0 | 5.0 | 0.00 | 0.00 | 0.00 | 79 | 1023.4 |
| 20260902164038 | 71 | 222 | 2.0 | 5.0 | 0.00 | 0.00 | 0.00 | 79 | 1023.3 |
| 20260902163535 | 71 | 215 | 2.0 | 4.0 | 0.00 | 0.00 | 0.00 | 80 | 1023.2 |
| 20260902163035 | 71 | 221 | 2.0 | 3.0 | 0.00 | 0.00 | 0.00 | 80 | 1023.3 |
| 20260902162537 | 70 | 200 | 2.0 | 5.0 | 0.00 | 0.00 | 0.00 | 81 | 1023.4 |
| 20260902162034 | 70 | 184 | 2.0 | 5.0 | 0.00 | 0.00 | 0.00 | 80 | 1023.5 |
| 20260902161534 | 71 | 191 | 2.0 | 5.0 | 0.00 | 0.00 | 0.00 | 80 | 1023.5 |
| 20260902161026 | 71 | 198 | 2.0 | 5.0 | 0.00 | 0.00 | 0.00 | 79 | 1023.5 |
| 20260902160525 | 71 | 206 | 2.0 | 3.0 | 0.00 | 0.00 | 0.00 | 79 | 1023.5 |
| 20260902160024 | 71 | 221 | 2.0 | 3.0 | 0.00 | 0.00 | 0.00 | 78 | 1023.6 |
| 20260902155523 | 71 | 339 | 1.0 | 3.0 | 0.00 | 0.00 | 0.00 | 79 | 1023.7 |
| 20260902155022 | 71 | 247 | 2.0 | 3.0 | 0.00 | 0.00 | 0.00 | 79 | 1023.8 |
| 20260902154521 | 71 | 181 | 1.0 | 4.0 | 0.00 | 0.00 | 0.00 | 79 | 1023.6 |
| 20260902154022 | 71 | 205 | 2.0 | 4.0 | 0.00 | 0.00 | 0.00 | 78 | 1023.6 |
| 20260902153519 | 71 | 234 | 2.0 | 5.0 | 0.00 | 0.00 | 0.00 | 78 | 1023.7 |
| 20260902153020 | 72 | 235 | 2.0 | 5.0 | 0.00 | 0.00 | 0.00 | 78 | 1023.6 |
| 20260902152518 | 71 | 211 | 2.0 | 5.0 | 0.00 | 0.00 | 0.00 | 79 | 1023.7 |
| 20260902152239 | 71 | 233 | 1.0 | 5.0 | 0.00 | 0.00 | 0.00 | 79 | 1023.7 |
| 20260902151516 | 72 | 224 | 2.0 | 4.0 | 0.00 | 0.00 | 0.00 | 80 | 1023.6 |
| 20260902151503 | 71 | 133 | 1.0 | 4.0 | 0.00 | 0.00 | 0.00 | 81 | 1023.6 |
| 20260902150514 | 71 | 139 | 1.0 | 4.0 | 0.00 | 0.00 | 0.00 | 81 | 1023.6 |
| 20260902150014 | 71 | 181 | 1.0 | 4.0 | 0.00 | 0.00 | 0.00 | 82 | 1023.6 |
| 20260902145512 | 70 | 231 | 2.0 | 5.0 | 0.00 | 0.00 | 0.00 | 82 | 1023.5 |
| 20260902145012 | 70 | 168 | 2.0 | 5.0 | 0.00 | 0.00 | 0.00 | 82 | 1023.5 |
| 20260902144511 | 70 | 201 | 2.0 | 5.0 | 0.00 | 0.00 | 0.00 | 82 | 1023.5 |
| 20260902144010 | 70 | 177 | 1.0 | 3.0 | 0.00 | 0.00 | 0.00 | 82 | 1023.4 |
| 20260902143510 | 70 | 197 | 2.0 | 3.0 | 0.00 | 0.00 | 0.00 | 82 | 1023.3 |
| 20260902143008 | 70 | 191 | 1.0 | 4.0 | 0.00 | 0.00 | 0.00 | 83 | 1023.2 |
| 20260902142506 | 70 | 196 | 2.0 | 4.0 | 0.00 | 0.00 | 0.00 | 83 | 1023.1 |
| 20260902142008 | 70 | 231 | 1.0 | 4.0 | 0.00 | 0.00 | 0.00 | 83 | 1023.1 |
| 20260902141506 | 70 | 220 | 1.0 | 4.0 | 0.00 | 0.00 | 0.00 | 83 | 1023.0 |
| 20260902140950 | 69 | 197 | 1.0 | 4.0 | 0.00 | 0.00 | 0.00 | 83 | 1022.8 |
| 20260902140452 | 69 | 200 | 2.0 | 4.0 | 0.00 | 0.00 | 0.00 | 83 | 1022.9 |
| 20260902135950 | 69 | 201 | 2.0 | 4.0 | 0.00 | 0.00 | 0.00 | 83 | 1023.0 |
| 20260902135932 | 69 | 205 | 2.0 | 4.0 | 0.00 | 0.01 | 0.00 | 83 | 1022.9 |
| 20260902134946 | 69 | 219 | 1.0 | 3.0 | 0.00 | 0.01 | 0.00 | 84 | 1022.9 |
| 20260902134704 | 69 | 171 | 1.0 | 3.0 | 0.00 | 0.01 | 0.00 | 84 | 1022.8 |
| 20260902133945 | 69 | 184 | 1.0 | 3.0 | 0.00 | 0.01 | 0.00 | 84 | 1022.9 |
| 20260902133444 | 69 | 193 | 1.0 | 2.0 | 0.00 | 0.01 | 0.00 | 84 | 1022.8 |
| 20260902132943 | 69 | 172 | 1.0 | 3.0 | 0.00 | 0.02 | 0.00 | 84 | 1022.9 |
| 20260902132700 | 69 | 177 | 1.0 | 3.0 | 0.00 | 0.02 | 0.00 | 84 | 1023.0 |
| 20260902131942 | 68 | 176 | 1.0 | 2.0 | 0.00 | 0.03 | 0.00 | 84 | 1022.9 |
| 20260902131705 | 68 | 176 | 1.0 | 2.0 | 0.00 | 0.03 | 0.00 | 84 | 1022.9 |
| 20260902130941 | 68 | 177 | 1.0 | 3.0 | 0.00 | 0.03 | 0.00 | 84 | 1022.8 |
| 20260902130440 | 68 | 176 | 1.0 | 3.0 | 0.00 | 0.03 | 0.00 | 84 | 1022.9 |
| 20260902125940 | 68 | 176 | 0.0 | 3.0 | 0.00 | 0.03 | 0.00 | 84 | 1023.1 |
| 20260902125439 | 68 | 176 | 0.0 | 3.0 | 0.00 | 0.03 | 0.00 | 84 | 1023.1 |
| 20260902124939 | 68 | 176 | 1.0 | 4.0 | 0.00 | 0.03 | 0.00 | 84 | 1023.0 |
| 20260902124438 | 68 | 205 | 1.0 | 4.0 | 0.00 | 0.03 | 0.00 | 84 | 1023.0 |
| 20260902123937 | 68 | 210 | 1.0 | 4.0 | 0.00 | 0.03 | 0.00 | 84 | 1023.0 |
| 20260902123435 | 68 | 184 | 1.0 | 4.0 | 0.00 | 0.03 | 0.00 | 84 | 1022.9 |
| 20260902122935 | 68 | 203 | 0.0 | 3.0 | 0.00 | 0.03 | 0.00 | 84 | 1022.8 |
| 20260902122435 | 68 | 203 | 1.0 | 4.0 | 0.00 | 0.03 | 0.00 | 84 | 1022.9 |
| 20260902121933 | 68 | 201 | 1.0 | 4.0 | 0.00 | 0.03 | 0.00 | 84 | 1023.0 |
| 20260902121432 | 67 | 203 | 1.0 | 3.0 | 0.00 | 0.03 | 0.00 | 84 | 1023.2 |
| 20260902120931 | 67 | 201 | 1.0 | 3.0 | 0.00 | 0.03 | 0.00 | 84 | 1023.2 |
| 20260902120431 | 67 | 240 | 0.0 | 0.0 | 0.00 | 0.03 | 0.00 | 84 | 1023.2 |
| 20260902115923 | 67 | 240 | 0.0 | 0.0 | 0.00 | 0.03 | 0.00 | 84 | 1023.2 |
| 20260902115422 | 67 | 240 | 0.0 | 2.0 | 0.00 | 0.03 | 0.00 | 85 | 1023.3 |
| 20260902114922 | 67 | 240 | 0.0 | 2.0 | 0.00 | 0.03 | 0.00 | 84 | 1023.2 |
| 20260902114422 | 67 | 240 | 0.0 | 3.0 | 0.00 | 0.03 | 0.00 | 85 | 1023.1 |
| 20260902113920 | 67 | 240 | 0.0 | 3.0 | 0.00 | 0.03 | 0.00 | 85 | 1023.0 |
| 20260902113419 | 66 | 240 | 1.0 | 2.0 | 0.00 | 0.03 | 0.00 | 85 | 1022.9 |
| 20260902112910 | 66 | 240 | 0.0 | 2.0 | 0.00 | 0.03 | 0.00 | 85 | 1022.9 |
| 20260902112411 | 66 | 239 | 1.0 | 2.0 | 0.00 | 0.03 | 0.00 | 85 | 1023.0 |
| 20260902111911 | 66 | 240 | 1.0 | 4.0 | 0.00 | 0.03 | 0.00 | 86 | 1022.9 |
| 20260902111403 | 66 | 240 | 1.0 | 4.0 | 0.00 | 0.03 | 0.00 | 87 | 1022.8 |
| 20260902110902 | 67 | 256 | 1.0 | 4.0 | 0.00 | 0.03 | 0.00 | 87 | 1022.8 |
| 20260902110402 | 67 | 255 | 1.0 | 4.0 | 0.00 | 0.03 | 0.00 | 88 | 1022.7 |
| 20260902105902 | 67 | 274 | 1.0 | 4.0 | 0.00 | 0.03 | 0.00 | 88 | 1022.6 |
| 20260902105401 | 67 | 236 | 1.0 | 5.0 | 0.00 | 0.03 | 0.00 | 88 | 1022.4 |
| 20260902104901 | 67 | 240 | 1.0 | 5.0 | 0.00 | 0.03 | 0.00 | 88 | 1022.3 |
| 20260902104400 | 67 | 179 | 1.0 | 3.0 | 0.00 | 0.03 | 0.00 | 88 | 1022.4 |
| 20260902103901 | 67 | 1 | 2.0 | 4.0 | 0.00 | 0.03 | 0.00 | 88 | 1022.3 |
| 20260902103623 | 67 | 239 | 2.0 | 4.0 | 0.00 | 0.03 | 0.00 | 88 | 1022.2 |
| 20260902103113 | 67 | 320 | 2.0 | 3.0 | 0.00 | 0.03 | 0.00 | 88 | 1022.2 |
| 20260902102351 | 67 | 313 | 2.0 | 4.0 | 0.00 | 0.03 | 0.00 | 88 | 1022.2 |
| 20260902101850 | 67 | 257 | 1.0 | 4.0 | 0.00 | 0.03 | 0.00 | 88 | 1022.2 |
| 20260902101349 | 67 | 229 | 2.0 | 4.0 | 0.00 | 0.03 | 0.00 | 88 | 1022.2 |
| 20260902100848 | 67 | 0 | 2.0 | 5.0 | 0.00 | 0.03 | 0.00 | 88 | 1022.1 |
| 20260902100348 | 67 | 278 | 2.0 | 5.0 | 0.00 | 0.03 | 0.00 | 88 | 1022.1 |
| 20260902100109 | 67 | 42 | 2.0 | 4.0 | 0.00 | 0.03 | 0.00 | 88 | 1022.2 |
| 20260902095349 | 67 | 106 | 2.0 | 4.0 | 0.00 | 0.03 | 0.00 | 88 | 1022.2 |
| 20260902094848 | 66 | 42 | 2.0 | 4.0 | 0.00 | 0.03 | 0.00 | 88 | 1022.3 |
| 20260902094340 | 66 | 5 | 1.0 | 7.0 | 0.00 | 0.03 | 0.00 | 88 | 1022.2 |
| 20260902093841 | 66 | 8 | 2.0 | 7.0 | 0.00 | 0.03 | 0.00 | 88 | 1022.1 |
| 20260902093341 | 67 | 359 | 1.0 | 3.0 | 0.00 | 0.03 | 0.00 | 88 | 1022.0 |
| 20260902093104 | 67 | 1 | 2.0 | 4.0 | 0.00 | 0.03 | 0.00 | 88 | 1021.9 |
| 20260902092339 | 67 | 39 | 1.0 | 5.0 | 0.00 | 0.03 | 0.00 | 88 | 1022.0 |
| 20260902091838 | 67 | 256 | 2.0 | 5.0 | 0.00 | 0.03 | 0.00 | 88 | 1022.0 |
| 20260902091603 | 67 | 55 | 1.0 | 4.0 | 0.00 | 0.03 | 0.00 | 88 | 1021.9 |
| 20260902090836 | 67 | 28 | 2.0 | 6.0 | 0.00 | 0.03 | 0.00 | 88 | 1021.8 |
| 20260902090335 | 67 | 14 | 2.0 | 6.0 | 0.00 | 0.03 | 0.00 | 88 | 1021.8 |
| 20260902085834 | 67 | 312 | 1.0 | 3.0 | 0.00 | 0.03 | 0.00 | 87 | 1021.6 |
| 20260902085333 | 67 | 8 | 2.0 | 4.0 | 0.00 | 0.03 | 0.00 | 87 | 1021.6 |
| 20260902084834 | 67 | 45 | 2.0 | 4.0 | 0.00 | 0.03 | 0.00 | 87 | 1021.7 |
| 20260902084552 | 67 | 24 | 2.0 | 4.0 | 0.00 | 0.03 | 0.00 | 86 | 1021.7 |
| 20260902083831 | 67 | 347 | 1.0 | 4.0 | 0.00 | 0.03 | 0.00 | 86 | 1021.9 |
| 20260902083810 | 67 | 28 | 1.0 | 4.0 | 0.00 | 0.03 | 0.00 | 86 | 1021.9 |
| 20260902082829 | 67 | 184 | 1.0 | 3.0 | 0.00 | 0.03 | 0.00 | 86 | 1021.8 |
| 20260902082328 | 67 | 28 | 1.0 | 5.0 | 0.00 | 0.03 | 0.00 | 86 | 1021.8 |
| 20260902081828 | 67 | 25 | 2.0 | 5.0 | 0.00 | 0.03 | 0.00 | 85 | 1021.8 |
| 20260902081325 | 67 | 54 | 1.0 | 5.0 | 0.00 | 0.03 | 0.00 | 85 | 1022.0 |
| 20260902080826 | 67 | 55 | 1.0 | 4.0 | 0.00 | 0.03 | 0.00 | 85 | 1022.0 |
| 20260902080323 | 67 | 47 | 1.0 | 7.0 | 0.00 | 0.03 | 0.00 | 85 | 1022.0 |
| 20260902075823 | 67 | 23 | 2.0 | 7.0 | 0.00 | 0.03 | 0.00 | 85 | 1022.0 |
| 20260902075325 | 66 | 42 | 2.0 | 5.0 | 0.00 | 0.03 | 0.00 | 85 | 1022.0 |
| 20260902075045 | 66 | 1 | 1.0 | 3.0 | 0.00 | 0.03 | 0.00 | 85 | 1022.0 |
| 20260902074316 | 66 | 0 | 1.0 | 3.0 | 0.00 | 0.03 | 0.00 | 85 | 1021.9 |
| 20260902073816 | 66 | 359 | 1.0 | 3.0 | 0.00 | 0.03 | 0.00 | 85 | 1021.9 |
| 20260902073312 | 66 | 338 | 1.0 | 3.0 | 0.00 | 0.03 | 0.00 | 85 | 1021.7 |
| 20260902073032 | 66 | 340 | 2.0 | 4.0 | 0.00 | 0.03 | 0.00 | 86 | 1021.7 |
| 20260902072310 | 66 | 39 | 2.0 | 4.0 | 0.00 | 0.03 | 0.00 | 86 | 1021.5 |
| 20260902071809 | 66 | 328 | 1.0 | 3.0 | 0.00 | 0.03 | 0.00 | 86 | 1021.4 |
| 20260902071309 | 66 | 328 | 0.0 | 3.0 | 0.00 | 0.03 | 0.00 | 87 | 1021.5 |
| 20260902070809 | 66 | 323 | 1.0 | 3.0 | 0.00 | 0.03 | 0.00 | 87 | 1021.4 |
| 20260902070307 | 66 | 251 | 1.0 | 3.0 | 0.00 | 0.03 | 0.00 | 88 | 1021.4 |
| 20260902065806 | 66 | 248 | 1.0 | 3.0 | 0.00 | 0.03 | 0.00 | 88 | 1021.4 |
| 20260902065307 | 65 | 248 | 1.0 | 2.0 | 0.00 | 0.03 | 0.00 | 89 | 1021.4 |
| 20260902064806 | 65 | 287 | 1.0 | 2.0 | 0.00 | 0.03 | 0.00 | 89 | 1021.6 |
| 20260902064304 | 65 | 190 | 0.0 | 2.0 | 0.00 | 0.03 | 0.00 | 90 | 1021.6 |
| 20260902063802 | 65 | 190 | 0.0 | 2.0 | 0.00 | 0.03 | 0.00 | 90 | 1021.7 |
| 20260902063301 | 65 | 190 | 1.0 | 2.0 | 0.00 | 0.03 | 0.00 | 90 | 1021.6 |
| 20260902062801 | 64 | 190 | 0.0 | 2.0 | 0.00 | 0.03 | 0.00 | 90 | 1021.6 |
| 20260902062257 | 64 | 191 | 0.0 | 0.0 | 0.00 | 0.03 | 0.00 | 90 | 1021.8 |
| 20260902061758 | 64 | 191 | 0.0 | 0.0 | 0.00 | 0.03 | 0.00 | 90 | 1021.8 |
| 20260902061731 | 64 | 191 | 0.0 | 0.0 | 0.00 | 0.03 | 0.00 | 90 | 1021.8 |
| 20260902060743 | 64 | 191 | 0.0 | 0.0 | 0.00 | 0.03 | 0.00 | 90 | 1021.8 |
| 20260902060241 | 64 | 191 | 0.0 | 0.0 | 0.00 | 0.03 | 0.00 | 90 | 1021.7 |
| 20260902055740 | 64 | 191 | 0.0 | 0.0 | 0.00 | 0.03 | 0.00 | 90 | 1021.7 |
| 20260902055231 | 64 | 191 | 0.0 | 0.0 | 0.00 | 0.03 | 0.00 | 90 | 1021.6 |
| 20260902054731 | 64 | 191 | 0.0 | 0.0 | 0.00 | 0.03 | 0.00 | 90 | 1021.6 |
| 20260902054456 | 63 | 191 | 0.0 | 0.0 | 0.00 | 0.03 | 0.00 | 90 | 1021.5 |
| 20260902053729 | 63 | 191 | 0.0 | 0.0 | 0.00 | 0.03 | 0.00 | 90 | 1021.6 |
| 20260902053230 | 63 | 191 | 0.0 | 0.0 | 0.00 | 0.03 | 0.00 | 90 | 1021.6 |
| 20260902052730 | 63 | 191 | 0.0 | 0.0 | 0.00 | 0.03 | 0.00 | 90 | 1021.5 |
| 20260902052227 | 62 | 191 | 0.0 | 0.0 | 0.00 | 0.03 | 0.00 | 89 | 1021.4 |
| 20260902051730 | 62 | 191 | 0.0 | 0.0 | 0.00 | 0.03 | 0.00 | 89 | 1021.4 |
| 20260902051228 | 62 | 191 | 0.0 | 0.0 | 0.00 | 0.03 | 0.00 | 89 | 1021.4 |
| 20260902050714 | 62 | 191 | 0.0 | 0.0 | 0.00 | 0.03 | 0.00 | 89 | 1021.2 |
| 20260902050215 | 62 | 191 | 0.0 | 0.0 | 0.00 | 0.03 | 0.00 | 89 | 1021.1 |
| 20260902045705 | 62 | 191 | 0.0 | 0.0 | 0.00 | 0.03 | 0.00 | 89 | 1021.1 |
| 20260902045204 | 62 | 191 | 0.0 | 0.0 | 0.00 | 0.03 | 0.00 | 89 | 1021.1 |
| 20260902044703 | 62 | 191 | 0.0 | 0.0 | 0.00 | 0.03 | 0.00 | 89 | 1021.0 |
| 20260902044204 | 62 | 191 | 0.0 | 0.0 | 0.00 | 0.03 | 0.00 | 89 | 1020.9 |
| 20260902043928 | 62 | 191 | 0.0 | 0.0 | 0.00 | 0.03 | 0.00 | 89 | 1020.8 |
| 20260902043420 | 62 | 191 | 0.0 | 0.0 | 0.00 | 0.03 | 0.00 | 89 | 1020.7 |
| 20260902042703 | 62 | 191 | 0.0 | 0.0 | 0.00 | 0.03 | 0.00 | 89 | 1020.6 |
| 20260902042426 | 62 | 191 | 0.0 | 0.0 | 0.00 | 0.03 | 0.00 | 89 | 1020.7 |
| 20260902042308 | 62 | 191 | 0.0 | 0.0 | 0.00 | 0.03 | 0.00 | 89 | 1020.6 |
| 20260902041425 | 62 | 191 | 0.0 | 0.0 | 0.00 | 0.03 | 0.00 | 89 | 1020.8 |
| 20260902040644 | 62 | 191 | 0.0 | 0.0 | 0.00 | 0.03 | 0.00 | 89 | 1020.7 |
| 20260902040144 | 62 | 191 | 0.0 | 0.0 | 0.00 | 0.03 | 0.00 | 89 | 1020.7 |
| 20260902035629 | 62 | 191 | 0.0 | 0.0 | 0.00 | 0.03 | 0.03 | 89 | 1020.5 |
| 20260902035343 | 62 | 191 | 0.0 | 0.0 | 0.00 | 0.03 | 0.03 | 89 | 1020.6 |
| 20260902035228 | 62 | 191 | 0.0 | 0.0 | 0.00 | 0.03 | 0.03 | 89 | 1020.5 |
| 20260902034125 | 62 | 191 | 0.0 | 0.0 | 0.00 | 0.03 | 0.03 | 89 | 1020.6 |
| 20260902033627 | 62 | 191 | 0.0 | 0.0 | 0.00 | 0.03 | 0.03 | 89 | 1020.5 |
| 20260902033127 | 62 | 191 | 0.0 | 0.0 | 0.00 | 0.03 | 0.03 | 89 | 1020.5 |
| 20260902032625 | 62 | 191 | 0.0 | 0.0 | 0.00 | 0.03 | 0.03 | 89 | 1020.5 |
| 20260902032125 | 62 | 191 | 0.0 | 0.0 | 0.00 | 0.03 | 0.03 | 89 | 1020.6 |
| 20260902031622 | 62 | 191 | 0.0 | 0.0 | 0.00 | 0.03 | 0.03 | 89 | 1020.7 |
| 20260902031123 | 62 | 191 | 0.0 | 0.0 | 0.00 | 0.03 | 0.03 | 89 | 1020.7 |
| 20260902030622 | 62 | 191 | 0.0 | 0.0 | 0.00 | 0.03 | 0.03 | 89 | 1020.8 |
| 20260902030121 | 62 | 191 | 0.0 | 0.0 | 0.00 | 0.03 | 0.03 | 89 | 1020.6 |
| 20260902025620 | 62 | 191 | 0.0 | 0.0 | 0.00 | 0.03 | 0.03 | 89 | 1020.5 |
| 20260902025120 | 62 | 191 | 0.0 | 1.0 | 0.00 | 0.03 | 0.03 | 89 | 1020.7 |
| 20260902024613 | 61 | 191 | 0.0 | 1.0 | 0.00 | 0.03 | 0.03 | 89 | 1020.7 |
| 20260902024333 | 61 | 191 | 0.0 | 1.0 | 0.00 | 0.03 | 0.03 | 88 | 1020.6 |
| 20260902023613 | 61 | 191 | 0.0 | 0.0 | 0.00 | 0.03 | 0.03 | 88 | 1020.6 |
| 20260902023057 | 61 | 191 | 0.0 | 0.0 | 0.00 | 0.03 | 0.03 | 88 | 1020.5 |
| 20260902022817 | 61 | 191 | 0.0 | 0.0 | 0.00 | 0.03 | 0.03 | 88 | 1020.4 |
| 20260902022318 | 62 | 191 | 0.0 | 0.0 | 0.00 | 0.03 | 0.03 | 88 | 1020.4 |
| 20260902021556 | 62 | 191 | 0.0 | 0.0 | 0.00 | 0.03 | 0.03 | 88 | 1020.4 |
| 20260902021054 | 62 | 191 | 0.0 | 0.0 | 0.00 | 0.03 | 0.03 | 88 | 1020.5 |
| 20260902021038 | 62 | 191 | 0.0 | 0.0 | 0.00 | 0.03 | 0.03 | 87 | 1020.5 |
| 20260902020311 | 62 | 191 | 0.0 | 0.0 | 0.00 | 0.03 | 0.03 | 87 | 1020.4 |
| 20260902015555 | 62 | 191 | 0.0 | 0.0 | 0.00 | 0.03 | 0.03 | 87 | 1020.4 |
| 20260902015051 | 63 | 191 | 0.0 | 1.0 | 0.00 | 0.03 | 0.03 | 87 | 1020.5 |
| 20260902014543 | 63 | 191 | 0.0 | 1.0 | 0.00 | 0.03 | 0.03 | 87 | 1020.5 |
| 20260902014041 | 63 | 191 | 0.0 | 0.0 | 0.00 | 0.03 | 0.03 | 87 | 1020.4 |
| 20260902013540 | 63 | 191 | 0.0 | 1.0 | 0.00 | 0.03 | 0.03 | 86 | 1020.4 |
| 20260902013032 | 63 | 191 | 0.0 | 1.0 | 0.00 | 0.03 | 0.03 | 86 | 1020.5 |
| 20260902012533 | 63 | 191 | 0.0 | 0.0 | 0.00 | 0.03 | 0.03 | 86 | 1020.4 |
| 20260902012031 | 63 | 191 | 0.0 | 0.0 | 0.00 | 0.03 | 0.03 | 86 | 1020.5 |
| 20260902011533 | 64 | 191 | 0.0 | 0.0 | 0.00 | 0.03 | 0.03 | 86 | 1020.4 |
| 20260902011023 | 64 | 191 | 0.0 | 0.0 | 0.00 | 0.03 | 0.03 | 86 | 1020.3 |
| 20260902011002 | 64 | 191 | 0.0 | 0.0 | 0.00 | 0.03 | 0.03 | 85 | 1020.4 |
| 20260902010020 | 64 | 191 | 0.0 | 0.0 | 0.00 | 0.03 | 0.03 | 85 | 1020.3 |
| 20260902005521 | 64 | 191 | 0.0 | 1.0 | 0.00 | 0.03 | 0.03 | 85 | 1020.0 |
| 20260902005020 | 64 | 191 | 0.0 | 3.0 | 0.00 | 0.03 | 0.03 | 84 | 1020.0 |
| 20260902004513 | 65 | 191 | 1.0 | 3.0 | 0.00 | 0.03 | 0.03 | 84 | 1019.9 |
| 20260902004229 | 65 | 190 | 0.0 | 2.0 | 0.00 | 0.03 | 0.03 | 84 | 1020.0 |
| 20260902003511 | 65 | 190 | 0.0 | 2.0 | 0.00 | 0.03 | 0.03 | 83 | 1020.1 |
| 20260902003010 | 65 | 190 | 0.0 | 2.0 | 0.00 | 0.03 | 0.03 | 83 | 1020.1 |
| 20260902002507 | 65 | 190 | 0.0 | 2.0 | 0.00 | 0.03 | 0.03 | 83 | 1020.1 |
| 20260902002005 | 65 | 190 | 0.0 | 1.0 | 0.00 | 0.03 | 0.03 | 82 | 1020.2 |
| 20260902001505 | 65 | 190 | 0.0 | 1.0 | 0.00 | 0.03 | 0.03 | 82 | 1020.3 |
| 20260902001005 | 65 | 190 | 0.0 | 2.0 | 0.00 | 0.03 | 0.03 | 81 | 1020.4 |
| 20260902000458 | 65 | 190 | 1.0 | 2.0 | 0.00 | 0.03 | 0.03 | 81 | 1020.3 |
| 20260901235954 | 65 | 190 | 0.0 | 2.0 | 0.00 | 0.03 | 0.03 | 81 | 1020.2 |
| 20260901235452 | 65 | 190 | 1.0 | 2.0 | 0.00 | 0.03 | 0.03 | 81 | 1020.1 |
| 20260901235213 | 65 | 190 | 1.0 | 2.0 | 0.00 | 0.03 | 0.03 | 81 | 1020.1 |
| 20260901234452 | 65 | 190 | 1.0 | 2.0 | 0.00 | 0.03 | 0.03 | 80 | 1020.0 |
| 20260901233950 | 65 | 190 | 0.0 | 3.0 | 0.00 | 0.03 | 0.03 | 81 | 1020.1 |
| 20260901233448 | 65 | 190 | 1.0 | 3.0 | 0.00 | 0.03 | 0.03 | 81 | 1020.0 |
| 20260901232945 | 65 | 191 | 1.0 | 4.0 | 0.00 | 0.03 | 0.03 | 81 | 1020.1 |
| 20260901232444 | 65 | 191 | 0.0 | 4.0 | 0.00 | 0.03 | 0.03 | 82 | 1020.0 |
| 20260901231943 | 65 | 184 | 1.0 | 4.0 | 0.00 | 0.03 | 0.03 | 82 | 1020.0 |
| 20260901231443 | 66 | 181 | 2.0 | 4.0 | 0.00 | 0.03 | 0.03 | 84 | 1020.0 |
| 20260901230941 | 66 | 194 | 0.0 | 2.0 | 0.00 | 0.03 | 0.03 | 85 | 1019.9 |
| 20260901230659 | 66 | 194 | 0.0 | 1.0 | 0.00 | 0.03 | 0.03 | 85 | 1019.8 |
| 20260901230207 | 66 | 194 | 0.0 | 0.0 | 0.00 | 0.03 | 0.03 | 85 | 1019.8 |
| 20260901225923 | 66 | 194 | 0.0 | 2.0 | 0.00 | 0.03 | 0.03 | 84 | 1019.9 |
| 20260901224931 | 67 | 194 | 0.0 | 2.0 | 0.00 | 0.03 | 0.03 | 84 | 1019.8 |
| 20260901224430 | 67 | 194 | 0.0 | 3.0 | 0.00 | 0.03 | 0.03 | 84 | 1019.8 |
| 20260901223929 | 67 | 194 | 1.0 | 3.0 | 0.00 | 0.03 | 0.03 | 83 | 1019.7 |
| 20260901223652 | 67 | 194 | 0.0 | 3.0 | 0.00 | 0.03 | 0.03 | 83 | 1019.8 |
| 20260901222920 | 67 | 194 | 1.0 | 3.0 | 0.00 | 0.03 | 0.03 | 82 | 1019.8 |
| 20260901222419 | 67 | 194 | 0.0 | 3.0 | 0.00 | 0.03 | 0.03 | 82 | 1019.8 |
| 20260901221919 | 67 | 194 | 2.0 | 3.0 | 0.00 | 0.03 | 0.03 | 81 | 1019.9 |
| 20260901221416 | 67 | 198 | 2.0 | 3.0 | 0.00 | 0.03 | 0.03 | 81 | 1020.0 |
| 20260901220915 | 67 | 173 | 1.0 | 2.0 | 0.00 | 0.03 | 0.03 | 82 | 1020.0 |
| 20260901220416 | 67 | 174 | 0.0 | 1.0 | 0.00 | 0.03 | 0.03 | 81 | 1020.0 |
| 20260901215914 | 67 | 174 | 0.0 | 3.0 | 0.00 | 0.03 | 0.03 | 81 | 1019.8 |
| 20260901215414 | 68 | 174 | 1.0 | 3.0 | 0.00 | 0.03 | 0.03 | 80 | 1019.8 |
| 20260901214913 | 68 | 184 | 0.0 | 4.0 | 0.00 | 0.03 | 0.03 | 80 | 1019.8 |
| 20260901214412 | 68 | 184 | 2.0 | 4.0 | 0.00 | 0.03 | 0.03 | 80 | 1020.0 |
| 20260901214357 | 68 | 158 | 1.0 | 3.0 | 0.00 | 0.03 | 0.03 | 80 | 1019.9 |
| 20260901213409 | 68 | 155 | 1.0 | 3.0 | 0.00 | 0.03 | 0.03 | 80 | 1019.9 |
| 20260901212908 | 68 | 155 | 1.0 | 2.0 | 0.00 | 0.03 | 0.03 | 79 | 1019.9 |
| 20260901212400 | 68 | 155 | 0.0 | 1.0 | 0.00 | 0.03 | 0.03 | 79 | 1019.8 |
| 20260901212124 | 68 | 155 | 0.0 | 3.0 | 0.00 | 0.03 | 0.03 | 78 | 1019.8 |
| 20260901211622 | 68 | 155 | 1.0 | 3.0 | 0.00 | 0.03 | 0.03 | 78 | 1019.8 |
| 20260901211121 | 68 | 155 | 2.0 | 3.0 | 0.00 | 0.03 | 0.03 | 78 | 1019.6 |
| 20260901210625 | 68 | 155 | 2.0 | 3.0 | 0.00 | 0.03 | 0.03 | 78 | 1019.6 |
| 20260901205854 | 68 | 153 | 1.0 | 3.0 | 0.00 | 0.03 | 0.03 | 79 | 1019.6 |
| 20260901205353 | 68 | 153 | 2.0 | 3.0 | 0.00 | 0.03 | 0.03 | 78 | 1019.5 |
| 20260901204852 | 68 | 153 | 1.0 | 4.0 | 0.00 | 0.03 | 0.03 | 78 | 1019.5 |
| 20260901204353 | 68 | 152 | 2.0 | 5.0 | 0.00 | 0.03 | 0.03 | 77 | 1019.4 |
| 20260901204114 | 68 | 171 | 2.0 | 5.0 | 0.00 | 0.03 | 0.03 | 78 | 1019.4 |
| 20260901203350 | 69 | 176 | 2.0 | 5.0 | 0.00 | 0.03 | 0.03 | 81 | 1019.3 |
| 20260901202850 | 69 | 189 | 0.0 | 3.0 | 0.00 | 0.03 | 0.03 | 81 | 1019.3 |
| 20260901202350 | 69 | 186 | 0.0 | 5.0 | 0.00 | 0.03 | 0.03 | 81 | 1019.3 |
| 20260901201849 | 69 | 186 | 3.0 | 5.0 | 0.00 | 0.03 | 0.03 | 80 | 1019.2 |
| 20260901201348 | 69 | 188 | 0.0 | 4.0 | 0.00 | 0.03 | 0.03 | 78 | 1019.2 |
| 20260901200848 | 69 | 188 | 1.0 | 4.0 | 0.00 | 0.03 | 0.03 | 77 | 1019.2 |
| 20260901200611 | 69 | 174 | 1.0 | 3.0 | 0.00 | 0.03 | 0.03 | 78 | 1019.2 |
| 20260901195845 | 69 | 169 | 2.0 | 3.0 | 0.00 | 0.03 | 0.03 | 77 | 1019.1 |
| 20260901195346 | 69 | 166 | 1.0 | 5.0 | 0.00 | 0.03 | 0.03 | 78 | 1019.2 |
| 20260901194844 | 69 | 169 | 1.0 | 5.0 | 0.00 | 0.03 | 0.03 | 78 | 1019.1 |
| 20260901194342 | 69 | 170 | 1.0 | 4.0 | 0.00 | 0.03 | 0.03 | 79 | 1019.0 |
| 20260901193840 | 69 | 183 | 2.0 | 4.0 | 0.00 | 0.03 | 0.03 | 78 | 1019.1 |
| 20260901193339 | 69 | 153 | 1.0 | 3.0 | 0.00 | 0.03 | 0.03 | 77 | 1019.2 |
| 20260901192840 | 69 | 152 | 1.0 | 4.0 | 0.00 | 0.03 | 0.03 | 78 | 1019.2 |
| 20260901192339 | 69 | 181 | 1.0 | 4.0 | 0.00 | 0.03 | 0.03 | 80 | 1019.2 |
| 20260901191836 | 69 | 208 | 0.0 | 3.0 | 0.00 | 0.03 | 0.03 | 82 | 1019.1 |
| 20260901191337 | 69 | 209 | 0.0 | 4.0 | 0.00 | 0.03 | 0.03 | 81 | 1019.1 |
| 20260901190835 | 69 | 213 | 2.0 | 4.0 | 0.00 | 0.03 | 0.03 | 79 | 1019.0 |
| 20260901190337 | 69 | 192 | 1.0 | 6.0 | 0.00 | 0.03 | 0.03 | 79 | 1018.9 |
| 20260901185834 | 68 | 193 | 3.0 | 6.0 | 0.00 | 0.03 | 0.03 | 79 | 1018.9 |
| 20260901185327 | 68 | 184 | 4.0 | 6.0 | 0.00 | 0.03 | 0.03 | 80 | 1019.0 |
| 20260901184826 | 69 | 185 | 2.0 | 4.0 | 0.00 | 0.03 | 0.03 | 81 | 1019.1 |
| 20260901184326 | 69 | 186 | 2.0 | 5.0 | 0.00 | 0.03 | 0.03 | 80 | 1019.2 |
| 20260901183824 | 69 | 194 | 2.0 | 6.0 | 0.00 | 0.03 | 0.03 | 81 | 1019.1 |
| 20260901183315 | 69 | 191 | 3.0 | 7.0 | 0.00 | 0.03 | 0.03 | 81 | 1018.9 |
| 20260901182815 | 69 | 195 | 2.0 | 7.0 | 0.00 | 0.03 | 0.03 | 80 | 1018.9 |